Temperature
27 26 25 25 28 30 29 29 29 29 28 28 27 27 26 25 24 22 21 20 20 19 19 19 19 19 19 18 18 18 18 18 18 18 18 18 18 18 18 18 18 18 18 18 18 18 18 18 18
27 26 26 28 30 29 29 29 29 29 29 28 27 26 25 24 23 21 21 20 20 19 19 19 19 19 19 18 18 18 18 18 18 18 18 18 18 18 18 18 18 18 18 18 18 18 18 18 18
27 27 29 32 31 30 29 30 30 30 29 28 27 25 25 24 22 21 21 20 20 19 19 19 19 19 19 18 18 18 18 18 18 18 18 18 18 18 18 18 18 18 18 18 18 18 18 18 18
27 30 31 32 31 31 31 31 31 30 29 28 27 25 24 23 22 21 21 21 20 19 19 19 19 19 19 19 18 18 18 18 18 18 18 18 18 18 18 18 18 18 18 18 18 18 18 18 18
29 31 32 31 31 32 32 31 31 30 29 28 26 24 23 22 22 22 21 21 20 19 19 19 19 19 19 19 18 18 18 18 19 19 18 18 18 18 18 18 18 18 18 18 18 18 18 18 18
32 33 32 31 31 32 32 31 31 30 29 28 26 24 23 22 22 22 22 21 21 20 19 20 19 19 19 19 19 19 19 19 19 19 19 18 18 18 18 18 18 18 18 18 18 18 18 18 18
33 33 32 32 32 32 32 32 31 31 30 29 27 25 23 23 22 22 22 21 21 20 19 19 19 19 19 19 19 19 19 19 19 19 19 19 18 18 18 18 18 18 18 18 18 18 18 18 18
34 34 33 33 32 32 32 32 31 30 30 29 28 26 24 23 23 22 22 21 21 20 20 19 19 19 19 19 19 19 19 19 19 19 18 18 18 18 18 18 18 18 18 18 18 18 18 18 18
34 34 33 33 33 32 32 32 31 30 29 29 28 26 24 23 23 22 22 21 21 21 20 20 19 19 18 19 19 19 19 18 18 18 18 18 18 18 18 18 18 18 18 18 18 18 18 18 18
35 34 34 35 34 34 33 32 31 30 29 28 26 25 24 24 23 23 22 22 21 21 20 20 20 19 19 19 19 18 18 18 18 18 18 18 18 18 18 18 18 18 18 18 18 18 18 18 18
36 35 35 35 34 34 33 33 32 31 30 28 26 25 25 24 24 23 23 22 21 21 21 20 20 20 20 19 19 19 19 18 18 18 18 18 18 18 18 18 18 18 18 18 18 18 18 18 18
36 36 35 35 34 34 33 33 32 31 30 28 27 26 25 25 24 24 23 22 21 21 21 20 20 20 20 20 19 19 19 19 18 18 18 18 18 18 18 18 18 18 18 18 18 18 18 18 19
35 36 35 35 34 34 33 32 32 31 29 28 27 26 26 25 25 24 23 22 22 21 21 20 20 20 20 20 19 19 19 19 19 19 19 18 18 18 18 18 18 18 18 18 18 18 18 18 18
36 35 35 35 34 34 33 32 31 31 29 28 27 27 26 26 25 24 23 22 22 21 21 20 20 20 20 20 19 19 19 19 19 19 19 19 18 18 18 18 18 18 18 18 18 18 18 18 18
35 35 35 35 34 33 32 31 32 30 29 29 28 27 27 26 25 24 23 23 22 21 21 20 20 20 20 19 19 19 19 19 19 19 19 19 18 18 18 18 18 18 18 18 18 18 18 18 18
35 34 33 35 35 34 32 29 31 31 30 29 28 28 27 26 25 24 23 23 22 21 21 21 20 20 20 19 19 19 19 19 19 19 19 19 19 18 18 18 18 18 18 18 18 18 18 18 18
34 33 33 34 35 34 32 30 31 31 31 30 29 28 27 26 25 24 24 23 22 22 21 21 20 20 20 20 20 20 19 19 19 19 19 19 19 19 18 18 18 18 18 18 18 18 18 18 18
33 33 33 34 35 35 33 31 32 32 31 30 29 28 27 26 25 24 24 23 22 22 21 21 20 20 20 20 20 19 19 19 19 19 19 19 19 19 18 18 18 19 19 19 19 18 18 18 18
34 34 34 35 36 35 33 32 32 32 32 31 30 29 28 27 26 25 24 23 22 22 21 21 20 20 20 19 19 19 19 19 19 19 19 19 19 19 18 18 19 19 19 18 18 18 18 18 18
34 34 34 35 35 35 33 33 33 32 32 31 30 29 28 27 26 25 24 23 22 22 21 21 21 20 20 20 20 20 20 19 19 19 19 19 19 19 18 19 19 19 19 18 19 19 18 18 18
34 34 34 34 35 35 33 32 31 32 31 31 31 30 29 28 27 25 24 23 23 22 22 21 21 21 21 20 20 20 20 20 19 19 19 19 19 19 19 18 18 18 18 18 18 18 18 18 18
33 35 35 34 33 33 33 31 30 31 31 31 31 30 29 28 27 26 25 24 23 22 22 22 21 21 21 20 20 20 20 19 20 19 19 19 19 19 19 19 19 19 18 18 18 18 18 18 18
34 35 34 34 33 33 33 32 30 31 30 31 31 31 30 29 28 27 25 24 23 23 22 22 21 21 21 20 20 20 20 20 19 19 19 19 19 19 19 19 19 19 19 18 18 18 18 18 18
34 34 34 33 33 31 32 32 30 31 31 32 32 31 30 30 29 27 26 25 24 23 23 22 22 21 21 21 20 20 20 19 19 19 19 19 19 19 19 19 19 19 19 18 18 18 18 18 18
34 32 31 30 30 31 32 32 32 33 33 32 32 32 31 30 29 28 27 25 25 24 23 22 22 21 21 21 20 20 20 19 19 19 19 19 19 19 19 18 19 18 18 18 18 18 18 18 18
33 32 31 30 30 31 32 32 32 34 34 33 33 32 31 30 29 28 27 26 25 24 23 22 22 21 21 21 20 20 20 20 19 19 19 19 19 19 19 19 18 18 18 18 18 18 18 18 18
32 32 33 32 31 30 31 32 33 34 34 33 33 32 31 30 29 28 27 26 25 24 23 22 21 21 21 20 20 20 20 20 19 19 19 19 18 18 19 19 18 18 18 18 18 18 18 18 18
33 33 32 31 30 30 31 31 31 32 33 33 33 32 31 30 29 28 27 26 25 24 23 22 21 21 21 20 20 20 20 20 19 19 19 18 18 18 18 18 18 18 18 17 17 17 17 17 17
32 32 32 32 31 31 30 30 33 32 33 33 32 31 30 30 29 28 27 26 25 24 23 22 21 21 20 20 20 19 19 19 19 19 18 18 18 18 18 18 18 18 17 17 17 17 17 17 17
33 32 32 30 30 31 31 31 33 33 33 33 32 31 30 29 29 28 26 25 24 23 23 22 21 21 20 20 19 19 19 18 18 18 18 18 18 18 18 17 17 17 17 17 17 17 17 17 17
Wind_Speed
8 10 9 5 3 8 17 16 17 16 17 17 17 16 19 18 13 11 9 12 14 14 14 15 15 15 16 15 15 15 15 15 16 16 17 17 17 17 18 17 17 18 18 18 18 18 18 17 17
9 11 8 4 4 13 16 15 16 15 15 16 19 20 21 19 15 12 12 13 14 15 15 16 15 16 16 15 15 15 15 15 16 16 17 16 17 17 17 17 17 17 18 18 18 17 17 16 15
12 14 6 2 13 14 15 14 15 15 14 16 18 17 14 13 14 11 13 14 15 16 17 16 16 16 16 15 15 15 16 16 16 16 17 16 17 17 17 17 17 17 17 17 17 16 15 14 13
8 4 1 9 16 17 15 13 14 15 15 16 15 13 15 14 13 13 14 15 16 17 18 17 16 16 16 16 15 15 16 16 16 16 16 16 16 17 17 16 16 16 16 15 15 15 13 12 10
8 2 6 13 17 16 14 14 15 16 17 20 20 18 16 15 15 14 13 14 16 17 17 17 17 17 16 16 16 16 17 16 16 16 16 16 16 16 16 16 15 15 14 14 14 13 12 11 8
4 2 6 12 17 15 15 15 16 17 18 19 20 19 14 13 12 13 13 13 15 17 17 16 16 17 16 16 16 16 16 16 16 16 16 15 16 15 15 15 14 14 14 13 12 12 11 9 6
5 1 9 15 16 15 14 14 15 15 15 16 18 17 12 12 11 13 12 12 14 15 15 14 15 15 16 15 15 15 15 15 15 15 15 15 15 14 14 14 13 13 12 12 12 11 9 7 4
2 2 9 14 15 16 14 14 14 15 13 13 13 12 13 13 13 13 12 12 12 12 13 13 14 14 14 14 13 13 13 14 14 14 13 13 13 13 13 13 12 12 11 11 10 9 7 5 4
2 1 9 13 14 14 15 15 14 14 14 15 17 18 18 17 16 14 12 11 10 11 10 10 12 11 12 13 12 12 12 11 11 10 11 10 9 10 10 12 12 11 10 9 9 8 6 5 6
3 6 12 13 14 15 14 14 15 14 15 17 18 19 18 16 15 13 12 12 10 9 9 8 9 9 11 11 11 9 10 9 7 7 8 6 6 8 10 10 10 9 8 8 8 8 7 7 6
5 9 12 13 14 13 13 13 13 14 15 17 19 18 16 15 14 12 11 12 10 9 9 9 7 5 8 7 8 6 8 8 7 7 6 6 6 8 8 7 7 7 7 6 8 8 7 8 5
5 8 10 11 12 11 13 12 13 15 16 17 18 17 15 14 13 12 12 12 10 8 9 10 8 6 6 6 5 5 6 5 5 7 5 5 3 3 4 4 6 6 5 4 4 4 3 2 1
5 7 9 9 10 11 12 13 15 17 18 18 18 16 15 14 13 12 12 12 10 9 9 9 8 7 5 4 1 4 5 5 6 7 6 5 3 2 3 2 1 2 2 3 1 1 0 1 2
4 6 7 8 10 10 11 11 13 16 17 17 16 15 14 13 13 12 12 11 11 10 10 9 7 7 5 3 2 2 4 5 4 5 6 4 4 3 3 1 1 2 2 3 1 0 0 1 1
3 4 5 8 10 9 9 8 12 15 15 15 14 14 14 13 13 12 12 10 11 10 10 9 7 7 5 3 3 3 4 5 4 5 6 4 4 4 2 1 0 1 2 2 1 0 0 1 1
8 7 6 8 10 10 8 7 11 15 15 14 13 13 13 12 12 12 12 10 10 10 9 8 8 9 5 2 1 1 2 4 4 5 5 5 5 3 2 1 1 1 1 1 1 1 1 1 1
9 8 9 8 10 10 8 9 11 13 15 13 13 13 13 13 12 12 12 11 10 9 9 7 6 8 7 5 3 1 1 2 2 3 4 5 5 3 2 1 1 1 1 1 1 1 0 1 2
9 9 9 8 9 9 9 10 13 13 13 14 13 13 13 14 13 12 12 11 11 10 9 8 6 6 6 5 3 2 2 2 2 2 3 4 3 3 2 2 2 2 1 1 1 1 2 2 3
10 8 7 6 7 7 9 10 11 11 10 13 13 14 13 13 14 13 13 12 11 10 9 8 8 7 5 4 4 3 3 2 3 3 6 5 4 4 3 1 2 2 1 2 2 2 2 3 3
11 9 7 5 5 5 7 9 9 11 10 12 13 14 14 14 13 13 13 12 11 10 10 9 8 8 7 5 4 3 2 2 2 2 4 6 5 4 4 3 3 2 2 2 3 2 2 3 2
11 11 8 6 6 7 6 7 8 8 7 10 12 13 14 14 14 14 13 12 13 12 11 10 9 8 8 6 5 4 3 2 1 2 3 4 5 4 3 2 2 2 2 3 3 3 3 3 2
11 10 9 8 7 7 10 7 8 10 9 11 11 12 13 14 14 15 14 12 12 12 12 9 9 8 7 6 6 5 4 4 3 2 2 3 3 3 4 3 3 2 2 2 4 3 2 3 3
11 7 8 10 10 11 10 7 7 10 10 12 12 13 13 14 15 15 15 13 12 12 11 11 9 8 7 6 6 5 4 3 3 2 2 3 3 3 3 3 2 3 3 3 3 2 2 2 2
11 10 10 12 11 13 11 8 7 9 10 11 13 13 13 14 14 14 14 13 12 12 11 11 10 8 8 7 6 5 4 3 2 2 2 3 2 2 3 3 3 3 2 2 2 2 3 2 2
13 11 9 10 10 11 10 8 5 8 8 9 11 12 12 12 13 13 13 13 12 11 10 10 10 9 8 7 6 5 4 3 3 3 2 2 2 2 2 2 2 2 2 2 2 2 2 2 3
15 16 12 9 9 9 11 9 6 7 8 7 8 10 11 11 11 12 13 12 11 11 9 10 9 8 8 7 6 4 4 3 3 3 2 2 1 1 2 2 2 2 2 2 1 2 2 2 2
16 17 17 14 13 9 8 7 8 8 9 9 9 9 9 10 10 11 12 12 12 11 10 10 9 8 7 6 5 5 4 3 2 2 1 1 1 1 1 1 1 1 1 1 1 1 1 1 1
17 16 13 13 11 11 9 10 8 10 10 9 9 9 8 9 10 11 10 10 10 10 10 9 9 8 7 6 5 5 4 3 2 1 1 1 1 1 0 0 1 1 0 0 0 1 1 1 1
18 18 14 11 12 12 8 5 7 9 9 10 9 9 9 9 9 10 10 10 10 10 10 8 9 8 7 6 5 4 5 4 3 2 1 0 0 0 0 1 0 1 1 0 1 1 1 1 2
18 18 16 12 10 10 10 4 5 8 8 9 9 9 9 9 9 9 11 11 10 9 9 8 8 8 7 6 5 4 4 4 3 2 2 1 1 1 1 1 1 1 1 2 2 2 3 4 4
Wind_Direction
240 232 224 240 226 71 67 64 67 68 65 59 57 65 61 56 68 87 103 100 99 98 96 88 84 84 82 82 84 83 83 88 91 95 98 98 99 101 102 102 102 104 105 105 105 105 104 105 106
252 242 233 243 68 75 70 69 69 71 78 75 68 69 69 67 79 97 102 102 102 100 96 90 88 86 84 83 83 83 85 89 92 96 98 98 99 100 101 102 103 104 106 106 106 106 106 107 108
258 251 257 77 66 73 78 77 79 78 79 81 75 65 64 75 82 96 106 108 103 98 94 93 90 88 86 84 84 84 87 90 93 97 97 98 99 100 101 100 102 103 105 106 107 107 107 108 110
262 245 151 78 78 76 81 87 89 86 81 82 84 76 70 75 90 101 110 108 104 100 97 96 92 90 88 86 85 85 88 91 94 98 99 99 99 101 102 101 101 101 103 106 107 107 107 107 110
244 269 90 84 84 83 85 89 88 84 83 83 85 88 84 84 95 104 108 105 101 99 100 100 96 92 90 87 86 88 89 90 95 99 100 100 102 103 104 104 104 104 104 106 108 109 108 108 111
260 215 96 90 88 86 87 92 92 92 96 100 99 97 93 99 103 105 104 103 102 104 103 105 103 98 94 90 88 88 88 89 95 102 103 104 103 103 104 106 106 106 106 109 110 109 111 114 116
265 74 106 100 96 90 86 91 94 93 93 98 105 103 107 113 112 105 104 100 100 106 112 115 112 108 101 96 94 92 92 93 96 103 102 106 106 108 107 108 109 109 111 111 112 114 118 126 142
324 57 103 101 98 96 95 88 91 95 93 104 112 110 124 128 122 111 105 101 103 107 113 117 119 122 118 110 105 103 100 101 103 105 108 112 114 115 116 112 111 112 116 119 123 129 138 152 178
267 88 93 98 104 109 106 100 97 98 96 84 88 110 127 133 124 118 112 107 103 104 110 116 122 130 124 119 118 119 114 114 117 119 125 132 135 126 125 114 120 121 126 132 138 146 163 184 206
70 83 88 97 105 111 111 115 117 112 102 99 101 113 127 134 129 127 127 122 114 113 113 110 115 131 129 123 134 143 128 135 138 134 147 156 123 118 115 126 132 137 144 153 165 173 189 216 217
73 87 96 102 106 112 115 113 116 117 115 119 124 130 136 133 130 130 127 119 120 124 117 108 98 96 111 121 142 140 125 138 135 123 126 131 128 127 133 147 152 163 172 188 175 189 207 219 225
92 88 93 98 106 107 106 103 97 100 109 120 129 135 136 137 135 131 124 122 127 123 113 107 101 83 74 97 116 131 132 142 134 135 140 124 116 123 134 153 166 174 184 190 182 193 207 221 248
117 102 105 110 107 102 99 98 101 103 113 124 132 138 143 140 135 132 132 129 126 122 115 108 108 100 88 72 75 109 114 115 122 133 124 125 118 111 107 102 134 167 154 144 119 97 68 343 335
140 121 122 125 121 118 113 115 115 118 124 131 138 145 146 140 140 136 135 134 138 138 131 125 121 111 109 114 87 85 107 110 116 124 117 114 107 95 87 92 34 58 57 63 71 118 53 323 332
173 149 161 150 135 129 117 125 128 132 135 140 146 148 144 145 143 142 142 144 145 141 133 136 136 127 136 150 166 152 139 140 131 118 125 128 121 121 128 118 100 79 84 69 13 54 259 249 247
199 192 195 174 155 148 140 151 146 146 147 149 153 151 151 149 152 148 145 148 143 142 142 154 153 142 150 154 114 88 125 121 127 138 137 135 131 139 144 128 144 140 166 176 205 238 240 281 282
217 206 202 181 165 157 153 155 169 164 155 155 158 158 160 158 159 153 154 156 151 145 146 150 146 147 155 155 158 168 101 88 121 138 140 145 152 174 182 130 120 239 241 227 244 143 241 267 265
218 211 209 183 169 163 155 156 170 171 163 161 166 168 168 165 164 160 162 164 157 154 153 154 158 151 157 157 166 189 162 157 166 155 151 149 169 187 190 162 189 233 252 275 285 292 265 265 259
241 233 214 189 166 172 163 167 174 169 173 165 169 171 173 170 168 165 169 169 164 160 160 163 171 161 167 177 182 186 179 194 192 186 167 173 199 196 195 228 185 212 240 256 271 256 252 258 255
245 248 232 196 172 190 176 177 180 173 186 174 171 175 174 171 167 167 169 170 167 166 164 169 177 172 182 184 186 182 184 213 210 188 151 181 198 200 211 199 229 217 228 250 262 266 267 267 256
238 240 239 229 205 203 212 202 186 191 201 184 179 176 176 175 173 172 174 175 176 175 175 180 179 177 190 183 181 190 178 211 219 182 171 195 197 200 227 198 238 249 239 232 241 248 248 260 268
235 238 245 244 238 226 219 225 196 192 200 198 189 179 179 177 176 175 178 178 178 177 178 173 174 178 184 184 196 198 198 204 207 197 174 191 202 206 205 201 217 247 260 245 248 238 247 248 263
244 242 245 251 248 255 238 231 216 189 199 197 191 185 181 177 178 177 178 176 180 181 179 173 170 174 177 189 197 205 211 204 201 193 182 196 189 199 217 203 205 223 243 251 269 303 283 271 265
239 244 243 248 250 246 244 241 212 195 197 194 185 182 181 177 176 172 173 170 177 180 178 174 169 173 178 189 193 197 212 213 202 203 193 207 201 204 226 224 214 228 240 237 244 263 267 273 279
224 229 227 230 234 243 245 241 205 181 176 184 182 177 173 171 170 167 167 168 171 172 171 167 164 171 177 184 192 194 202 210 209 217 215 222 211 192 220 237 218 231 241 246 243 237 258 259 260
219 226 229 232 234 236 226 230 199 172 164 165 161 163 165 166 164 163 165 164 168 169 163 159 158 165 173 181 185 186 188 200 202 211 221 211 226 221 202 205 208 224 249 258 242 248 240 247 256
221 230 239 244 253 252 231 216 189 170 162 159 163 160 158 158 159 160 162 163 166 166 162 162 157 161 171 176 173 172 174 187 201 191 196 228 247 248 150 187 201 205 238 283 274 269 264 263 256
236 228 237 247 255 257 228 214 209 180 172 167 164 156 157 154 161 157 156 155 155 154 152 154 155 160 166 168 171 170 167 167 162 114 117 254 302 330 343 218 195 161 112 26 336 338 334 329 331
225 232 234 245 252 255 251 230 199 173 172 169 165 159 157 161 159 153 148 142 140 144 149 151 151 153 155 158 161 156 151 148 136 133 142 157 305 325 328 273 152 93 71 76 68 52 28 20 20
228 231 230 234 246 260 263 239 149 154 163 163 157 147 146 150 149 144 138 134 137 140 144 147 148 149 148 148 144 140 133 133 134 130 118 104 84 75 56 39 68 82 74 62 49 40 51 51 47
Height
1473 1473 1473 1476 1474 1476 1484 1482 1479 1482 1484 1487 1487 1489 1494 1496 1502 1516 1518 1516 1517 1516 1516 1515 1515 1515 1514 1514 1514 1514 1514 1515 1516 1517 1518 1519 1521 1522 1523 1525 1526 1528 1529 1530 1532 1533 1535 1537 1538
1473 1474 1477 1475 1474 1488 1492 1484 1485 1485 1487 1490 1492 1495 1498 1504 1509 1515 1518 1519 1520 1519 1519 1518 1518 1518 1518 1517 1517 1517 1517 1518 1519 1520 1521 1523 1524 1525 1526 1528 1529 1531 1532 1533 1535 1536 1538 1540 1541
1474 1475 1476 1469 1477 1487 1491 1485 1485 1487 1489 1492 1497 1501 1505 1511 1514 1517 1520 1522 1522 1522 1521 1521 1521 1521 1521 1521 1521 1521 1521 1521 1522 1523 1524 1526 1527 1528 1530 1531 1532 1534 1535 1536 1538 1539 1540 1542 1544
1476 1475 1474 1473 1483 1481 1482 1484 1485 1488 1492 1494 1499 1506 1512 1516 1518 1520 1522 1524 1525 1525 1524 1524 1524 1524 1524 1524 1524 1524 1524 1525 1525 1526 1527 1529 1530 1531 1532 1534 1535 1536 1538 1539 1540 1542 1543 1545 1546
1477 1474 1473 1479 1481 1480 1481 1484 1487 1491 1494 1499 1504 1512 1517 1521 1522 1523 1525 1527 1527 1527 1527 1527 1527 1527 1527 1527 1527 1527 1527 1527 1528 1529 1530 1532 1533 1534 1535 1537 1538 1539 1540 1541 1543 1544 1546 1547 1549
1474 1470 1480 1486 1484 1481 1482 1486 1489 1493 1498 1503 1508 1514 1521 1525 1525 1526 1528 1529 1530 1530 1530 1530 1530 1530 1530 1530 1530 1530 1530 1530 1531 1532 1533 1535 1536 1537 1538 1539 1541 1542 1543 1544 1545 1546 1548 1550 1551
1472 1470 1478 1481 1484 1486 1486 1487 1491 1495 1499 1503 1508 1515 1523 1526 1527 1529 1530 1532 1533 1533 1533 1533 1533 1533 1533 1533 1534 1534 1534 1534 1534 1535 1536 1538 1539 1540 1541 1542 1543 1544 1545 1546 1548 1549 1551 1552 1553
1470 1469 1476 1478 1485 1488 1488 1490 1494 1498 1502 1505 1508 1515 1523 1527 1529 1531 1532 1534 1535 1536 1536 1537 1537 1536 1537 1537 1537 1537 1537 1538 1538 1539 1540 1541 1542 1543 1544 1545 1546 1547 1548 1549 1550 1552 1553 1555 1556
1469 1473 1480 1479 1483 1486 1488 1493 1497 1500 1504 1507 1510 1516 1523 1527 1530 1532 1534 1536 1537 1538 1539 1539 1539 1540 1540 1540 1540 1541 1541 1541 1542 1542 1543 1544 1545 1546 1547 1548 1549 1550 1551 1552 1553 1554 1556 1557 1558
1468 1476 1477 1474 1478 1483 1488 1491 1496 1500 1505 1511 1516 1521 1525 1528 1531 1533 1535 1537 1539 1540 1541 1541 1542 1543 1543 1544 1543 1544 1544 1544 1545 1546 1546 1547 1548 1549 1550 1551 1551 1552 1553 1554 1556 1557 1558 1559 1560
1469 1472 1472 1474 1479 1483 1487 1491 1494 1498 1505 1512 1517 1522 1526 1529 1532 1534 1536 1538 1540 1541 1542 1543 1544 1545 1545 1546 1546 1547 1547 1547 1548 1548 1549 1549 1550 1551 1552 1552 1553 1554 1555 1556 1558 1558 1559 1560 1561
1472 1472 1474 1477 1481 1484 1487 1491 1496 1500 1507 1513 1518 1522 1526 1529 1532 1535 1537 1539 1541 1542 1543 1544 1545 1545 1546 1547 1548 1549 1549 1550 1550 1550 1551 1552 1552 1553 1553 1554 1555 1556 1557 1557 1559 1560 1561 1562 1562
1474 1475 1477 1480 1483 1486 1490 1494 1499 1504 1509 1515 1519 1523 1526 1529 1532 1535 1538 1540 1541 1543 1544 1545 1546 1546 1547 1548 1549 1551 1551 1551 1552 1552 1553 1553 1554 1554 1555 1555 1556 1558 1558 1559 1560 1561 1562 1562 1563
1475 1476 1478 1481 1484 1488 1492 1497 1501 1506 1511 1516 1520 1523 1526 1529 1532 1535 1538 1540 1542 1543 1545 1546 1547 1547 1548 1549 1550 1551 1552 1553 1554 1554 1554 1555 1555 1555 1556 1556 1557 1558 1559 1560 1560 1561 1562 1562 1563
1478 1479 1480 1480 1484 1488 1493 1500 1502 1507 1511 1515 1519 1523 1526 1530 1532 1535 1537 1540 1542 1543 1544 1546 1547 1547 1548 1550 1551 1552 1553 1554 1554 1555 1555 1555 1556 1556 1557 1558 1558 1559 1560 1560 1560 1561 1561 1562 1562
1478 1483 1489 1480 1481 1486 1496 1511 1503 1506 1510 1514 1518 1522 1525 1529 1532 1535 1537 1539 1541 1543 1544 1546 1548 1548 1548 1550 1551 1552 1554 1555 1555 1555 1556 1556 1556 1557 1557 1558 1559 1559 1560 1560 1560 1561 1561 1561 1562
1482 1490 1489 1481 1477 1482 1492 1504 1502 1504 1507 1512 1516 1520 1524 1528 1531 1534 1536 1539 1541 1543 1544 1546 1547 1548 1549 1550 1551 1552 1553 1554 1555 1556 1556 1556 1557 1557 1558 1558 1559 1559 1559 1560 1560 1560 1561 1561 1561
1489 1487 1485 1482 1476 1480 1490 1497 1498 1501 1503 1508 1513 1518 1522 1525 1529 1533 1535 1538 1540 1541 1543 1545 1546 1548 1549 1550 1551 1552 1553 1554 1555 1556 1556 1557 1557 1557 1557 1558 1558 1559 1559 1559 1560 1560 1560 1560 1560
1475 1479 1482 1477 1472 1479 1487 1493 1494 1498 1501 1505 1510 1514 1519 1523 1527 1531 1534 1536 1538 1540 1542 1543 1545 1546 1548 1550 1551 1552 1553 1554 1555 1555 1555 1556 1556 1557 1557 1558 1558 1558 1558 1558 1558 1558 1558 1558 1559
1476 1481 1480 1475 1472 1479 1486 1490 1490 1494 1499 1502 1507 1511 1516 1521 1525 1529 1532 1534 1537 1538 1540 1542 1543 1545 1547 1549 1550 1551 1553 1554 1554 1555 1555 1555 1556 1556 1557 1556 1557 1557 1557 1557 1557 1557 1557 1557 1558
1479 1481 1480 1480 1476 1478 1487 1495 1494 1494 1497 1500 1504 1508 1512 1517 1522 1526 1529 1532 1534 1536 1538 1540 1542 1544 1546 1547 1549 1551 1551 1552 1553 1554 1554 1554 1554 1554 1555 1555 1555 1556 1556 1555 1555 1555 1555 1555 1556
1482 1473 1474 1478 1485 1490 1488 1509 1500 1494 1497 1498 1502 1505 1509 1513 1518 1523 1526 1529 1532 1534 1536 1538 1540 1542 1544 1546 1548 1549 1550 1551 1552 1552 1552 1552 1553 1553 1553 1553 1554 1554 1554 1554 1554 1554 1554 1554 1554
1475 1471 1475 1478 1485 1491 1486 1500 1503 1491 1498 1496 1497 1501 1505 1510 1515 1519 1523 1526 1529 1532 1534 1536 1538 1540 1542 1544 1546 1548 1549 1549 1550 1551 1551 1551 1551 1551 1552 1552 1552 1551 1551 1551 1551 1551 1551 1552 1552
1472 1475 1478 1480 1485 1503 1491 1498 1504 1492 1491 1490 1492 1497 1502 1506 1511 1516 1520 1523 1527 1530 1533 1534 1536 1538 1540 1542 1544 1545 1547 1548 1549 1549 1549 1549 1549 1550 1550 1550 1550 1550 1549 1549 1549 1549 1549 1549 1549
1474 1487 1503 1509 1508 1506 1485 1492 1493 1480 1480 1485 1489 1493 1498 1503 1508 1513 1517 1521 1524 1528 1530 1532 1534 1536 1538 1540 1541 1543 1544 1546 1546 1547 1547 1548 1548 1548 1547 1548 1548 1548 1547 1547 1547 1547 1547 1547 1547
1477 1483 1503 1516 1514 1503 1489 1493 1484 1474 1478 1482 1486 1490 1496 1501 1505 1510 1514 1518 1522 1525 1528 1530 1532 1534 1536 1538 1539 1541 1542 1543 1544 1545 1546 1546 1546 1546 1547 1546 1546 1546 1545 1545 1544 1544 1544 1544 1544
1477 1479 1474 1488 1495 1502 1495 1486 1477 1472 1476 1480 1485 1489 1494 1499 1503 1508 1512 1517 1520 1524 1526 1529 1531 1533 1535 1536 1538 1539 1540 1541 1542 1543 1544 1544 1544 1545 1545 1544 1544 1544 1544 1543 1543 1543 1543 1543 1543
1468 1472 1479 1488 1505 1509 1498 1492 1489 1479 1477 1479 1483 1488 1493 1498 1502 1507 1511 1515 1519 1522 1525 1528 1530 1531 1533 1535 1536 1538 1538 1539 1540 1541 1541 1542 1542 1542 1542 1542 1542 1542 1542 1542 1541 1541 1542 1542 1541
1473 1474 1475 1479 1484 1500 1507 1497 1470 1474 1474 1478 1482 1487 1493 1498 1502 1506 1510 1514 1517 1521 1524 1527 1529 1530 1532 1533 1535 1536 1537 1538 1538 1539 1539 1540 1540 1540 1540 1540 1540 1540 1540 1540 1540 1540 1541 1540 1540
1465 1469 1473 1489 1491 1486 1493 1492 1465 1468 1472 1477 1482 1487 1492 1497 1501 1504 1508 1512 1516 1520 1523 1525 1527 1529 1530 1532 1533 1535 1536 1537 1537 1537 1538 1538 1538 1538 1538 1538 1539 1539 1540 1540 1540 1540 1540 1540 1539